Wind_Speed
4 4 4 4 3 3 3 3 3 4 4 4 4 3 2 2 1 2 2 2 3 4 5 5 5 6 6 6 7 6 6 7 8 7 7 8 9 9 9 9 9 9 10
4 4 4 4 4 3 3 4 4 4 4 5 4 3 2 3 2 3 3 3 4 5 6 6 6 6 7 6 6 7 7 8 8 8 8 8 9 10 9 9 10 10 11
5 5 4 4 5 5 4 4 4 4 5 5 4 4 3 3 4 4 3 4 3 4 5 6 6 6 7 6 6 6 6 8 9 8 8 8 9 10 10 10 11 11 11
6 6 6 5 5 5 6 6 5 5 5 5 5 5 4 4 3 3 2 2 2 3 4 6 7 7 7 7 7 7 6 8 9 8 8 9 9 9 10 10 10 11 11
7 7 7 6 6 6 6 7 6 6 6 6 5 6 5 5 4 4 4 4 4 4 4 5 7 7 7 8 8 8 8 8 8 9 9 9 10 10 10 11 11 11 11
8 7 7 7 7 7 7 6 6 7 6 6 6 6 6 5 5 5 5 5 5 5 5 5 6 7 7 8 8 8 8 9 9 10 10 10 10 11 11 11 11 11 11
9 8 8 7 7 7 7 7 6 7 6 6 6 6 6 6 5 6 6 6 6 5 5 5 5 6 7 7 8 8 8 9 10 11 11 12 12 12 12 11 11 12 13
9 8 8 8 7 7 7 7 7 7 7 7 7 7 6 6 6 6 6 6 6 6 6 6 6 6 6 6 7 9 9 9 10 11 12 12 13 12 12 12 12 12 13
10 9 9 9 8 8 8 8 8 7 8 8 8 8 7 7 7 7 6 6 6 7 7 6 7 8 8 8 8 9 10 10 11 11 12 12 12 12 12 12 12 12 13
10 9 9 9 9 9 9 9 9 9 9 9 9 8 7 7 7 7 7 7 8 8 8 7 7 8 8 8 9 9 10 11 10 10 11 11 11 11 11 12 12 13 14
11 10 10 10 10 9 9 9 9 9 9 9 8 8 7 7 7 7 7 7 8 9 9 9 8 8 9 9 10 10 11 11 11 12 12 12 13 14 14 14 14 14 14
12 12 11 10 10 10 10 10 10 11 10 10 9 9 8 8 8 8 8 8 9 10 11 10 10 10 10 10 10 10 11 12 13 12 13 13 13 14 14 15 15 15 15
14 13 11 11 11 11 11 11 11 11 11 11 11 11 10 9 9 9 9 9 10 11 12 12 11 11 11 11 11 12 12 13 14 13 13 13 13 14 15 16 16 15 15
14 14 13 13 13 13 12 12 12 12 12 12 12 12 11 11 11 11 11 11 11 11 12 13 13 13 12 13 13 13 13 13 13 14 14 14 15 15 15 16 17 17 17
15 15 15 14 14 14 14 14 14 13 13 12 12 13 13 13 13 13 13 13 13 13 13 13 13 13 13 13 13 14 15 14 14 14 14 15 16 16 17 17 18 18 17
17 16 16 16 16 16 16 16 15 15 14 14 14 14 15 15 15 15 15 14 14 15 15 15 15 14 14 15 15 15 15 15 15 15 16 16 17 17 18 18 18 18 17
17 17 17 17 16 16 16 17 17 17 16 16 16 16 16 17 17 17 17 17 16 16 16 16 16 16 16 16 16 16 17 17 17 17 18 19 19 19 18 18 19 19 19
18 18 18 18 18 18 18 19 18 18 18 18 18 18 17 17 17 17 18 18 19 19 18 18 18 19 18 18 18 18 19 19 19 19 19 20 20 21 20 20 20 21 21
19 20 20 20 20 20 20 20 20 20 20 20 20 20 20 20 19 19 20 20 19 20 20 19 20 21 20 20 19 19 20 20 21 21 20 20 21 22 22 22 22 22 22
20 21 20 20 21 21 22 22 22 22 22 22 22 22 22 22 22 22 22 21 21 21 21 22 22 22 23 22 22 22 22 22 22 22 21 21 22 23 23 23 23 23 23
22 22 22 22 21 21 22 22 22 23 23 24 24 23 24 24 23 23 23 23 23 23 23 23 24 25 25 25 25 25 24 25 25 24 24 24 24 24 25 24 24 24 25
23 24 23 22 22 23 23 23 24 24 24 24 24 24 25 25 25 25 25 25 25 25 25 25 25 26 27 27 27 28 27 27 27 27 27 27 27 27 27 26 26 26 26
25 25 25 24 24 24 24 24 24 24 25 25 25 25 26 26 26 27 27 27 27 27 27 27 27 27 28 29 30 30 29 29 28 28 29 29 29 29 28 28 28 28 28
26 26 26 26 25 25 25 25 26 26 26 26 27 27 27 27 28 28 28 28 28 28 29 29 28 28 28 29 30 29 29 30 30 30 30 30 30 30 30 29 29 30 29
27 27 27 27 27 27 27 27 28 28 28 28 29 29 29 29 29 29 29 29 29 30 30 30 30 30 30 30 30 30 30 30 30 30 31 31 31 31 31 31 30 30 29
28 28 28 28 29 29 29 29 29 30 30 30 30 31 31 30 31 31 31 31 31 31 32 32 32 32 32 31 32 32 31 31 31 31 31 31 31 31 31 31 30 30 30
Wind_Direction
23 12 7 4 349 342 339 330 321 303 292 295 299 311 309 297 271 262 248 228 213 216 215 215 217 215 208 213 213 218 220 217 215 213 217 217 217 219 222 223 224 227 231
28 17 9 7 0 346 335 329 334 333 318 303 293 291 290 284 269 268 252 237 233 230 227 218 223 223 218 219 219 224 220 218 217 216 217 219 220 221 222 227 228 233 239
23 15 11 4 358 354 343 327 318 324 324 317 310 303 286 274 270 272 250 241 248 248 237 229 226 227 223 227 227 225 223 214 215 217 220 221 222 226 231 233 231 237 241
25 20 11 5 357 352 346 340 322 317 318 315 312 307 295 277 265 266 259 252 263 259 243 233 235 232 231 234 234 230 225 216 218 221 223 223 226 230 233 238 236 239 240
18 10 4 359 353 347 343 342 334 324 321 317 310 301 289 278 266 254 254 249 258 266 262 244 238 236 235 235 233 234 228 224 226 228 229 231 233 233 236 240 240 239 240
13 4 359 356 353 351 349 345 336 333 323 318 314 305 290 276 268 257 256 253 254 259 259 250 242 238 239 235 237 235 234 233 234 234 236 237 235 236 239 242 245 243 245
14 10 2 356 352 347 346 342 338 331 325 317 317 313 300 281 267 258 250 247 250 252 253 253 255 247 244 238 230 231 235 237 239 235 235 235 234 237 240 241 247 249 249
2 3 1 357 351 343 340 338 335 333 325 316 312 310 303 292 279 269 256 249 250 246 248 250 252 249 246 244 234 237 240 239 240 236 234 235 236 239 240 244 250 252 252
352 352 350 349 348 343 338 333 329 327 324 316 311 304 299 294 281 276 273 268 261 250 248 251 247 246 248 248 246 236 241 242 243 242 237 238 239 243 246 248 252 255 255
345 342 340 339 339 338 335 330 327 325 322 320 315 308 297 292 283 275 273 268 265 260 259 262 262 262 261 256 250 247 244 240 242 243 241 241 242 246 251 254 255 259 261
342 337 333 332 333 328 329 328 328 325 323 321 316 313 306 296 287 283 272 264 263 263 263 265 267 264 267 266 260 259 253 244 243 244 245 246 248 252 256 259 260 263 264
334 331 325 325 328 329 329 325 319 317 314 312 310 308 307 305 291 285 277 271 266 264 265 266 262 265 268 266 268 263 259 254 248 247 248 250 253 255 258 262 262 264 267
328 326 323 319 318 316 317 319 317 313 312 310 307 304 302 300 293 285 282 276 271 268 265 266 266 268 269 268 270 265 263 263 258 254 256 255 257 261 262 263 263 265 266
322 319 317 314 313 311 312 313 311 311 311 308 305 301 299 297 291 288 284 281 275 270 268 267 269 268 268 268 270 267 265 265 260 261 262 260 259 262 265 263 263 262 263
318 315 313 311 310 309 308 306 305 307 306 302 297 294 294 293 289 287 287 283 277 271 270 268 267 265 266 268 270 264 266 267 265 266 268 268 265 266 269 266 266 264 265
319 313 310 310 308 306 304 303 302 302 302 298 293 290 289 289 286 281 282 282 279 274 268 267 268 269 267 268 267 265 269 270 272 270 270 271 270 270 270 271 271 268 267
314 311 308 307 306 305 303 301 300 299 297 296 295 290 287 286 285 282 281 281 279 277 273 269 269 270 269 269 269 269 273 272 272 269 267 268 270 270 271 270 271 269 268
310 309 307 305 303 301 299 299 298 297 296 293 292 290 287 285 285 283 282 282 280 279 278 272 269 270 270 269 270 270 271 272 272 270 269 269 269 271 271 271 271 270 268
310 309 305 303 302 300 298 297 295 294 293 292 290 288 287 284 283 281 281 280 280 279 278 274 270 270 271 269 269 270 271 272 273 270 271 270 270 270 270 270 270 272 270
308 307 304 303 301 299 298 296 294 292 291 291 290 287 286 284 281 280 278 277 277 276 276 274 270 269 268 267 267 268 269 270 270 269 270 270 269 269 268 268 268 269 270
308 307 303 301 300 300 299 297 295 294 292 290 289 286 284 282 281 279 278 275 275 275 275 274 271 270 269 269 269 268 268 269 268 268 269 269 269 268 267 267 267 268 269
308 306 302 301 300 299 298 296 295 294 293 292 289 286 284 282 281 280 278 276 275 275 273 273 272 271 271 270 270 268 267 267 266 266 267 268 270 269 268 266 267 268 269
306 304 302 300 300 299 297 295 295 295 293 292 290 287 284 283 281 279 278 277 276 275 274 273 272 271 272 271 271 271 269 266 266 265 265 266 266 267 266 266 267 267 268
303 303 301 300 299 298 297 296 296 295 294 292 290 288 285 283 281 280 278 276 275 275 274 273 273 271 271 271 271 271 271 268 267 264 263 264 265 265 264 265 267 267 268
302 302 301 300 300 298 298 297 296 295 293 292 290 287 285 283 282 280 279 277 275 274 273 273 272 271 270 270 270 269 268 269 269 267 265 264 264 264 263 264 264 265 267
301 302 302 301 301 299 298 298 297 295 294 292 289 287 284 283 282 281 278 276 275 274 273 272 272 272 270 270 269 268 267 268 267 267 267 265 263 263 262 262 263 263 265
Height
5887 5886 5885 5884 5883 5882 5881 5880 5878 5877 5877 5876 5875 5874 5874 5873 5872 5872 5871 5871 5871 5871 5871 5871 5871 5871 5871 5871 5871 5871 5871 5871 5872 5872 5873 5873 5874 5875 5876 5877 5878 5879 5879
5887 5886 5885 5884 5883 5881 5880 5879 5878 5877 5875 5874 5874 5874 5873 5872 5872 5871 5871 5870 5870 5870 5870 5869 5869 5869 5869 5869 5869 5869 5868 5869 5870 5871 5871 5872 5873 5874 5875 5876 5876 5877 5877
5887 5886 5885 5884 5883 5881 5880 5878 5877 5876 5875 5874 5873 5873 5872 5872 5871 5870 5870 5869 5870 5869 5869 5868 5868 5868 5868 5868 5868 5867 5866 5866 5868 5869 5870 5871 5871 5872 5873 5874 5874 5875 5876
5887 5886 5885 5884 5882 5881 5879 5878 5876 5875 5874 5873 5872 5871 5871 5870 5870 5870 5869 5868 5868 5868 5867 5867 5867 5866 5866 5867 5867 5866 5866 5865 5867 5868 5869 5869 5870 5870 5871 5872 5872 5873 5873
5887 5886 5884 5883 5882 5880 5879 5877 5876 5875 5873 5872 5871 5870 5869 5869 5868 5868 5868 5867 5867 5867 5866 5865 5865 5865 5865 5864 5865 5865 5865 5866 5866 5867 5867 5868 5868 5868 5869 5869 5870 5870 5871
5887 5886 5884 5883 5881 5880 5878 5877 5875 5874 5872 5871 5870 5869 5868 5867 5867 5866 5866 5866 5865 5865 5864 5864 5863 5863 5863 5863 5863 5863 5864 5864 5864 5865 5865 5866 5866 5866 5867 5867 5867 5868 5869
5887 5885 5884 5882 5881 5879 5877 5876 5874 5873 5871 5870 5869 5868 5866 5865 5865 5864 5864 5863 5863 5863 5862 5862 5862 5861 5861 5861 5861 5861 5861 5862 5862 5863 5863 5864 5864 5864 5864 5864 5865 5865 5866
5886 5885 5883 5881 5880 5878 5876 5875 5873 5872 5870 5869 5867 5866 5865 5865 5863 5863 5862 5861 5861 5860 5860 5860 5860 5860 5860 5859 5859 5859 5859 5860 5860 5860 5861 5861 5861 5862 5862 5862 5862 5862 5863
5886 5884 5883 5881 5879 5877 5875 5874 5872 5871 5869 5867 5865 5864 5863 5862 5861 5861 5860 5859 5858 5858 5858 5858 5858 5858 5857 5857 5857 5857 5857 5857 5857 5858 5858 5859 5859 5859 5859 5859 5859 5859 5860
5884 5883 5881 5879 5878 5876 5874 5872 5871 5869 5867 5865 5863 5862 5861 5860 5859 5859 5858 5857 5857 5857 5856 5856 5856 5856 5855 5855 5855 5855 5855 5855 5855 5855 5856 5856 5856 5856 5856 5856 5856 5856 5856
5883 5881 5879 5878 5876 5874 5872 5871 5869 5867 5865 5864 5862 5860 5859 5857 5857 5857 5857 5856 5855 5855 5855 5854 5854 5853 5853 5853 5853 5852 5852 5852 5852 5853 5853 5853 5853 5853 5853 5853 5853 5853 5853
5881 5879 5877 5876 5874 5872 5870 5869 5867 5865 5863 5861 5860 5858 5857 5856 5855 5854 5854 5854 5853 5852 5852 5851 5851 5851 5851 5850 5850 5850 5849 5849 5849 5849 5849 5850 5850 5850 5850 5850 5849 5849 5849
5879 5877 5875 5873 5872 5870 5868 5866 5864 5862 5860 5859 5857 5855 5854 5853 5852 5851 5851 5850 5850 5850 5849 5848 5848 5848 5847 5847 5847 5847 5846 5846 5846 5846 5846 5846 5846 5846 5846 5846 5845 5845 5845
5876 5874 5872 5870 5869 5867 5865 5863 5861 5859 5857 5856 5854 5852 5851 5850 5849 5848 5847 5847 5846 5846 5846 5845 5844 5844 5844 5844 5844 5843 5843 5842 5842 5842 5842 5842 5842 5842 5842 5841 5841 5840 5840
5873 5870 5869 5867 5865 5863 5861 5859 5858 5856 5854 5852 5851 5849 5848 5847 5846 5844 5843 5843 5843 5842 5842 5841 5841 5840 5840 5840 5840 5839 5839 5839 5839 5838 5838 5838 5838 5838 5837 5837 5836 5836 5835
5869 5867 5865 5863 5861 5859 5858 5856 5854 5852 5850 5848 5847 5846 5844 5843 5841 5840 5839 5838 5838 5838 5838 5837 5836 5836 5836 5835 5835 5835 5835 5835 5835 5834 5834 5834 5834 5833 5833 5832 5831 5830 5830
5865 5863 5861 5859 5857 5855 5853 5851 5850 5848 5846 5844 5843 5841 5840 5838 5837 5836 5835 5834 5833 5833 5833 5832 5831 5831 5831 5831 5830 5830 5830 5830 5830 5829 5829 5829 5829 5828 5827 5827 5826 5825 5825
5861 5859 5856 5854 5852 5850 5848 5847 5845 5843 5841 5839 5838 5836 5835 5833 5832 5831 5830 5829 5828 5827 5827 5826 5826 5826 5826 5826 5825 5825 5825 5825 5824 5824 5824 5823 5823 5822 5822 5821 5821 5820 5819
5856 5854 5851 5849 5847 5845 5843 5841 5839 5837 5835 5834 5832 5831 5829 5828 5827 5826 5824 5823 5822 5822 5821 5820 5821 5820 5820 5820 5819 5819 5819 5818 5818 5818 5817 5817 5816 5816 5816 5815 5815 5814 5814
5851 5849 5846 5844 5842 5839 5837 5835 5833 5831 5829 5827 5826 5824 5823 5821 5820 5819 5818 5817 5816 5815 5815 5814 5814 5814 5813 5813 5813 5813 5813 5812 5811 5811 5811 5810 5810 5809 5809 5809 5809 5808 5807
5845 5843 5840 5838 5836 5833 5831 5829 5827 5824 5822 5821 5819 5817 5816 5814 5813 5812 5811 5810 5809 5808 5808 5807 5807 5807 5806 5806 5806 5806 5806 5805 5804 5804 5804 5803 5803 5802 5802 5802 5802 5801 5800
5840 5837 5834 5832 5829 5827 5825 5822 5820 5818 5815 5813 5811 5810 5808 5807 5806 5804 5804 5803 5802 5801 5800 5800 5799 5799 5798 5798 5797 5797 5797 5797 5797 5797 5796 5796 5795 5795 5794 5794 5794 5793 5793
5833 5831 5828 5825 5823 5820 5818 5815 5813 5810 5808 5806 5804 5802 5800 5799 5797 5796 5795 5794 5794 5792 5792 5792 5791 5790 5790 5789 5789 5788 5788 5788 5788 5788 5788 5787 5787 5786 5786 5786 5786 5785 5785
5827 5824 5821 5818 5815 5813 5810 5808 5805 5803 5800 5798 5796 5794 5792 5790 5789 5788 5786 5786 5785 5784 5783 5782 5782 5781 5780 5780 5779 5779 5778 5778 5778 5778 5778 5778 5777 5777 5777 5777 5777 5777 5776
5819 5816 5813 5811 5808 5805 5802 5799 5797 5795 5792 5790 5787 5784 5782 5781 5779 5778 5777 5776 5775 5774 5773 5772 5772 5771 5770 5770 5769 5769 5768 5767 5767 5768 5768 5768 5768 5768 5768 5768 5768 5767 5767
5811 5808 5805 5802 5799 5796 5793 5791 5788 5786 5783 5781 5778 5775 5773 5771 5769 5767 5766 5765 5764 5763 5762 5762 5761 5761 5760 5759 5759 5758 5758 5758 5757 5758 5758 5757 5757 5758 5758 5759 5759 5758 5758